Weather History for Fairbanks Ft. Wainwright, AK

Change the Weather History Date:

Thursday, September 19, 2013

  Actual Average Record
Temperature  
Mean Temperature 32 °F -  
Max Temperature 39 °F 49 °F 64 °F (2006)
Min Temperature 26 °F 34 °F 26 °F (2013)
Degree Days  
Heating Degree Days 32    
Moisture  
Dew Point 26 °F    
Average Humidity 76    
Maximum Humidity 93    
Minimum Humidity 56    
Precipitation  
Precipitation 0.00 in - - ()
Sea Level Pressure  
Sea Level Pressure 29.68 in    
Wind  
Wind Speed 3 mph (WNW)    
Max Wind Speed 12 mph    
Max Gust Speed -    
Visibility 10 miles    
Events      
Averages and records for this station are not official NWS values.
T = Trace of Precipitation, MM = Missing Value Source: NWS Daily Summary

Daily Weather History Graph

Daily Weather History Graph

Search for Another Location

Airport:

Trip Planner

Search our weather history database for the weather conditions in past years. The results will help you decide how hot, cold, wet, or windy it might be!

Date:

Astronomy

Sep. 19, 2013 Rise Set
Actual Time 7:25 AM AKDT 8:00 PM AKDT
Civil Twilight 6:36 AM AKDT 8:50 PM AKDT
Nautical Twilight 5:34 AM AKDT 9:51 PM AKDT
Astronomical Twilight 4:20 AM AKDT 11:03 PM AKDT
Moon 7:30 PM AKDT (9/19) 8:09 AM AKDT (9/19)
Length of Visible Light 14h 13m
Length of Day
12h 35m
Full, 100% of the Moon is Illuminated
Sep 19
Full
Sep 26
Last Quarter
Oct 4
New
Oct 11
First Quarter
Oct 18
Full

Hourly Weather History & Observations

Time (AKDT) Temp. Windchill Dew Point Humidity Pressure Visibility Wind Dir Wind Speed Gust Speed Precip Events Conditions
12:56 AM 30.9 °F 26.2 °F 28.0 °F 89% 29.74 in 10.0 mi East 4.6 mph - N/A   Overcast
1:56 AM 30.0 °F 25.2 °F 28.0 °F 92% 29.74 in 10.0 mi East 4.6 mph - N/A   Overcast
2:56 AM 30.0 °F - 27.0 °F 88% 29.73 in 10.0 mi Calm Calm - N/A   Overcast
3:56 AM 28.9 °F - 27.0 °F 92% 29.72 in 10.0 mi Calm Calm - N/A   Overcast
4:56 AM 30.0 °F - 26.1 °F 85% 29.71 in 10.0 mi Calm Calm - N/A   Overcast
5:56 AM 28.9 °F - 25.0 °F 85% 29.70 in 10.0 mi Calm Calm - N/A   Clear
6:28 AM 28.4 °F - 24.8 °F 86% 29.68 in 7.0 mi Calm Calm - N/A   Mostly Cloudy
6:55 AM 26.6 °F - 24.8 °F 93% 29.70 in 7.0 mi Calm Calm - N/A   Mostly Cloudy
7:55 AM 26.6 °F - 24.8 °F 93% 29.69 in 10.0 mi Calm Calm - N/A   Mostly Cloudy
8:55 AM 26.6 °F - 24.8 °F 93% 29.69 in 10.0 mi Calm Calm - N/A   Mostly Cloudy
9:55 AM 28.4 °F - 26.6 °F 93% 29.69 in 10.0 mi Calm Calm - N/A   Mostly Cloudy
10:55 AM 33.8 °F 28.6 °F 26.6 °F 75% 29.69 in 10.0 mi WNW 5.8 mph - N/A   Mostly Cloudy
11:55 AM 35.6 °F 32.8 °F 26.6 °F 70% 29.69 in 10.0 mi Variable 3.5 mph - N/A   Mostly Cloudy
12:55 PM 39.2 °F 37.0 °F 24.8 °F 56% 29.69 in 10.0 mi Variable 3.5 mph - N/A   Mostly Cloudy
1:55 PM 39.2 °F 34.2 °F 24.8 °F 56% 29.68 in 10.0 mi Variable 6.9 mph - N/A   Mostly Cloudy
2:55 PM 39.2 °F 32.0 °F 24.8 °F 56% 29.68 in 25.0 mi West 11.5 mph - N/A   Mostly Cloudy
3:55 PM 39.2 °F 32.5 °F 24.8 °F 56% 29.68 in 25.0 mi West 10.4 mph - N/A   Mostly Cloudy
4:55 PM 39.2 °F 33.0 °F 24.8 °F 56% 29.67 in 25.0 mi West 9.2 mph - N/A   Mostly Cloudy
5:55 PM 39.2 °F 33.0 °F 24.8 °F 56% 29.66 in 25.0 mi West 9.2 mph - N/A   Mostly Cloudy
6:55 PM 37.4 °F 32.1 °F 24.8 °F 60% 29.66 in 25.0 mi NW 6.9 mph - N/A   Scattered Clouds
7:55 PM 35.6 °F 31.7 °F 24.8 °F 65% 29.65 in 25.0 mi West 4.6 mph - N/A   Mostly Cloudy
8:55 PM 35.6 °F 32.8 °F 26.6 °F 70% 29.64 in 13.0 mi WNW 3.5 mph - N/A   Mostly Cloudy
9:55 PM 33.8 °F 29.6 °F 26.6 °F 75% 29.63 in 7.0 mi West 4.6 mph - N/A   Mostly Cloudy
10:56 PM 32.0 °F 26.4 °F 27.0 °F 82% 29.62 in 10.0 mi NW 5.8 mph - N/A   Clear
11:56 PM 30.9 °F 26.2 °F 26.1 °F 82% 29.61 in 10.0 mi West 4.6 mph - N/A   Mostly Cloudy